Military
NORAD ID: 31140
Int'l Code: 2007-014A
Perigee: 361.2 km
Apogee: 427.3 km
Inclination: 48.2°
Period: 92.3 min
Semi major axis: 6,765.3 km
Launch date: April 24, 2007
Source: United States (US)
Comments: NFIRE is a data-gathering research satellite for the U.S. missile defense program.
Two Line Element Set (TLE):
1 31140U 07014A 09321.53362996 .00005777 00000-0 71690-4 0 9846
2 31140 048.2302 100.1389 0048894 058.5566 302.0147 15.60187310146167
More details about NFIRE